Location: *
(43.0409°N, 0.1694°E)
Time: 11:13:38
(UTC+00:00)

ATLAS 2AS CENTAUR R/B - Pass Details

Date: 03 October 2023
Orbit: 998 x 1213 km, 63.7° (Epoch: 17 November)

Event Time Altitude Azimuth Distance (km) Brightness Sun altitude
Exits shadow 02:05:35 41° 20° (NNE) 1,621 3.8 -40.4°
Drops below altitude 10° 02:10:05 10° 33° (NNE) 3,029 5.7 -39.8°
Sets 02:12:45 0° 36° (NE) 3,961 6.5 -39.4°
